Other Public Products
Issued by NWS Grand Forks, ND

Home | Current Version | Previous Version | Text Only | Print | Product List | Glossary Off
Versions: 1 2 3 4 5 6 7 8 9 10 11 12 13 14 15 16 17 18 19 20 21 22 23 24 25 26 27 28 29 30 31 32 33 34 35 36 37 38 39 40 41 42 43 44 45 46 47 48 49 50

000
FPUS83 KFGF 280131
OPUFGF
PRAIRIE TO PINES WEATHER ROUNDUP
NATIONAL WEATHER SERVICE EASTERN NORTH DAKOTA/GRAND FORKS ND
800 PM CDT WED JUL 27 2016

 **SATELLITE DATA USED TO AUGMENT SKY COVER AT AUTOMATED STATIONS**
 *****  WEATHER ACROSS EASTERN NORTH DAKOTA  *****

CITY           SKY/WX    TMP DP  RH WIND       PRES   REMARKS
GRAND FORKS    CLOUDY    72  58  61 NW9       30.05R
GRAND FORKS AF MOSUNNY   71  57  61 N10       30.08R
GRAND CITY NWS   N/A     70 N/A N/A NW9         N/A
BUXTON           N/A    N/A N/A N/A N10         N/A
DEVILS LAKE    MOSUNNY   70  54  56 NE9       30.12R
FARGO          CLOUDY    75  60  59 N15       30.02R
WAHPETON ARPT  CLEAR     70  55  60 NW7       30.03R
$$

 *****  WEATHER ACROSS CENTRAL AND WESTERN NORTH DAKOTA  *****

CITY           SKY/WX    TMP DP  RH WIND       PRES   REMARKS
JAMESTOWN      CLOUDY    72  58  61 N9        30.09R
BISMARCK       PTSUNNY   73  60  63 E8        30.10R
MINOT          CLOUDY    73  59  61 NE7       30.12R
MINOT AFB      MOSUNNY   72  56  58 NE6       30.11S
GARRISON         N/A     70  60  70 E7        30.12R
WILLISTON      CLOUDY    70  61  73 E9        30.13S
DICKINSON      PTSUNNY   72  59  63 NE13      30.10S
HETTINGER      SUNNY     75  59  57 NE9       30.12F
$$

 *****  OTHER OBSERVATIONS NORTHEAST NORTH DAKOTA  *****

CITY           SKY/WX    TMP DP  RH WIND       PRES   REMARKS
WALHALLA       FAIR      66  63  88 N8        30.12R
LANGDON        FAIR      66  57  72 NE9       30.14R
CAVALIER       FAIR      68  57  68 N10       30.10R
GRAFTON        FAIR      70  59  68 N10G16    30.10R
CANDO          FAIR      66  55  68 NE6       30.15S
FORT TOTTEN      N/A     69  54  57 N3        29.95
ROLLA          FAIR      64  54  68 NE6       30.16R
RUGBY          NOT AVBL
 ***** THE ABOVE OBSERVATIONS ARE NON NWS ARE NOT QUALITY
        CONTROLLED AND MAY MIS-REPORT RAIN FOR SNOW...
$$

 *****  OTHER OBSERVATIONS SOUTHEAST NORTH DAKOTA *****

CITY           SKY/WX    TMP DP  RH WIND       PRES   REMARKS
COOPERSTOWN    NOT AVBL
VALLEY CITY    FAIR      70  59  68 N7        30.10S
OAKES            N/A    N/A N/A N/A MISG        N/A
GWINNER        FAIR      70  57  64 N8        30.07S
BUFFALO          N/A     70  54  56 N6          N/A
WYNDMERE         N/A    N/A N/A N/A NW3         N/A
 ***** THE ABOVE OBSERVATIONS ARE NON NWS ARE NOT QUALITY
       CONTROLLED AND MAY MIS-REPORT RAIN FOR SNOW...
$$

  *****  WEATHER ACROSS NORTHERN MINNESOTA  *****

CITY           SKY/WX    TMP DP  RH WIND       PRES   REMARKS
FLAG ISLAND    PTCLDY    70  55  60 NE13      30.07S
WARROAD        CLEAR     72  61  68 NE12G18   30.07S
ROSEAU         CLEAR     70  63  78 E6        30.06S
HALLOCK        CLOUDY    70  61  73 N10G16    30.06R
THF RVR FALLS  CLOUDY    73  61  65 NE7       30.04S
HALSTAD          N/A     73  61  66 N12         N/A
FOSSTON        PTCLDY    70  61  73 CALM      30.04R
BAUDETTE       CLEAR     71  57  61 N10       30.05S
WASKISH        CLOUDY    72  63  73 CALM      30.03S
CROOKSTON      MOCLDY    72  63  73 N10       30.04R
$$
  *****  WEATHER ACROSS CENTRAL AND WEST MINNESOTA  *****

CITY           SKY/WX    TMP DP  RH WIND       PRES   REMARKS
BEMIDJI        CLEAR     70  61  73 E5        30.03R
PARK RAPIDS    CLOUDY    72  61  68 E7        30.02R
WADENA         PTCLDY    70  63  78 NE6       30.02R
DETROIT LAKES  PTCLDY    72  61  68 NE3       30.04R
MOORHEAD       CLOUDY    72  63  73 N9        30.03S
FERGUS FALLS   CLEAR     70  57  64 N7        30.02S
ELBOW LAKE     FAIR      72  60  64 N9        30.01S
MORRIS MN      CLEAR     73  61  64 NW8       30.01R
STAPLES        CLOUDY    70  61  73 E5        30.02R
WHEATON        CLEAR     73  63  68 NW9       30.04R
$$
  *****  WEATHER ELSEWHERE ACROSS MINNESOTA  *****

CITY           SKY/WX    TMP DP  RH WIND       PRES   REMARKS
DULUTH         PTCLDY    65  60  84 NE5       30.03S
INTRNTL FALLS  CLEAR     72  54  53 N9        30.04S
ELY            PTCLDY    66  61  82 CALM      30.04S
CLOQUET        CLEAR     64  55  72 NE3       30.02F
BRAINERD       PTCLDY    68  62  81 E7        30.01R
HIBBING        CLOUDY    66  64  93 CALM      30.02F
ALEXANDRIA     PTCLDY    75  62  64 N7        30.01R
SAINT CLOUD    PTCLDY    71  65  81 NE9       29.97R
MINNEAPOLIS    MOCLDY    72  64  76 N12       29.93F
$$

  *****  WEATHER ACROSS SOUTH DAKOTA  *****

CITY           SKY/WX    TMP DP  RH WIND       PRES   REMARKS
SIOUX FALLS    CLOUDY    76  64  66 N7        29.99R
BROOKINGS      CLOUDY    74  63  68 N9        30.02R
WATERTOWN      CLOUDY    75  56  51 NE12      30.04S
HURON          CLOUDY    78  63  59 N8        30.03R
SISSETON         N/A     74  58  57 N9        30.03R
ABERDEEN       PTSUNNY   76  61  59 N8        30.06S
MITCHELL       CLOUDY    79  64  60 NE7       30.02R
PIERRE         CLOUDY    72  63  73 E7        30.04S
MOBRIDGE       LGT RAIN  74  62  66 NE10      30.05R
RAPID CITY     SUNNY     79  58  48 NE7       30.11R
$$

  *****  SOME WEATHER IN NEARBY STATES *****

CITY           SKY/WX    TMP DP  RH WIND       PRES   REMARKS
GLASGOW MT     LGT RAIN  65  63  93 E8        30.11S
GREAT FALLS MT MOSUNNY   82  46  28 NE14      30.12F
CHEYENNE WY    SUNNY     77  55  46 SE7       30.21R
SCOTTSBLUFF NE PTSUNNY   83  55  38 E10       30.08R
OMAHA NE       CLOUDY    84  71  65 N6        29.92S
DES MOINES IA  PTCLDY    83  67  58 CALM      29.91R
DAVENPORT IA   CLOUDY    76  72  87 CALM      29.92R
CHICAGO IL     CLOUDY    83  61  47 E10       29.91S
EAU CLAIRE WI  LGT RAIN  67  66  97 NE8       29.93F
LA CROSSE WI   CLOUDY    80  67  64 S6        29.89F
$$

  *****  SOME NATIONAL WEATHER *****

CITY           SKY/WX    TMP DP  RH WIND       PRES   REMARKS
LA GUARDIA NY  PTCLDY    85  65  51 SE8       29.90R
RALEIGH NC     MOCLDY    79  70  74 CALM      29.95S
ATLANTA GA     PTCLDY    86  69  56 SW12      30.02S HX  90
NEW ORLEANS LA MOCLDY    84  72  67 S5        30.00S
OKLAHOMA CITY  CLOUDY    75  72  90 S6        29.92F
ALBUQUERQUE NM PTSUNNY   87  45  23 SE17      30.10S
SALT LAKE CITY SUNNY     99  27   8 CALM      30.03F HX  92
LOS ANGELES CA MOSUNNY   75  66  73 W14       29.87F
BOISE ID       SUNNY     99  38  12 NW14      29.93F HX  94
SEATTLE WA     MOSUNNY   83  57  41 N13       30.09F
$$

*** WEATHER ACROSS MANITOBA...SASKATCHEWAN AND ONTARIO ***
                ***ONTARIO***

CITY           SKY/WX    TMP DP  RH WIND       PRES   REMARKS
GERALDTON      PTCLDY    68  48  49 N6        30.03R
THUNDER BAY    PTCLDY    70  59  68 SE6       30.01S
SIOUX LOOKOUT  PTCLDY    64  52  63 N6        30.09S
TORONTO        MOCLDY    75  68  78 NE3       29.92R
BIG TROUT LK   NOT AVBL
PICKLE LAKE    PTCLDY    63  46  55 NE12G21   30.10R
DRYDEN         CLEAR     64  52  63 N8        30.10S
KENORA         PTCLDY    64  52  63 N8        30.12R
$$
                *** MANITOBA***

CITY           SKY/WX    TMP DP  RH WIND       PRES   REMARKS
BRANDON        PTSUNNY   68  54  60 E5        30.14S
DAUPHIN        SUNNY     70  55  60 NE5       30.13F
ISLAND LAKE    PTSUNNY   68  50  52 SW3       30.12S
PILOT MOUND      N/A     66  55  68 NE7         N/A
THE PAS        PTSUNNY   72  57  60 SE8       30.09S
THOMPSON       PTSUNNY   73  50  43 S5        30.07S
WINNIPEG       MOSUNNY   68  52  56 NE14G21   30.11S
LYNN LAKE      PTSUNNY   70  57  64 MISG      30.03R
CHURCHILL      PTSUNNY   66  52  59 SE12      30.03F
GILLAM         PTSUNNY   70  46  43 CALM      30.08F
$$
                ***SASKATCHEWAN***

CITY           SKY/WX    TMP DP  RH WIND       PRES   REMARKS
ESTEVAN        MOSUNNY   70  59  68 E7        30.14S
KINDERSLEY     MOSUNNY   75  59  57 SE9       30.13F
LLOYDMINSTER   MOSUNNY   79  61  53 NW5       30.11S
PRINCE ALBERT  MOSUNNY   77  54  44 SW10      30.09F
REGINA         PTSUNNY   72  55  56 SE9       30.14F
YORKTON        SUNNY     72  48  43 NE6       30.14F
N. BATTLEFORD  SUNNY     75  55  50 S7        30.12S   C1F1C2F2C3F3C4F4C5F5C6F6C7F7C8F8C9F9CaFaCbFbCcFcCdFdCe!


USA.gov is the U.S. government's official web portal to all federal, state and local government web resources and services.